TURKSAT 3A

Last updated on Sun Jun 21 2026 00:03:04 GMT+0000 (Coordinated Universal Time)

1 33056U 08030B 26171.25769021 .00000141 00000+0 00000+0 0 9991 2 33056 0.0640 80.9679 0005125 352.7047 329.5366 1.00272302 52388
UTC large
Height (km)
Speed (km/s)
/
Latitude / Longitude
Inclination (degrees)
Orbital Period (minutes)
Azimuth
Elevation
Range (km)
Doppler Factor

Next 0 passes for location: London (51.5072 / 0.1276)

No passes found over London.
TURKSAT 3A